Terug naar catalogus

COSMOS 2541

ActiefMilitairHEO
NORAD 44552·PAYLOAD·🇷🇺 Russia

Gelanceerd Sep 26, 2019 vanaf Plesetsk Cosmodrome

Loading…

Volgende Passages (komende 24 uur)

TLE

VersSource: Space-Track

Epoch: Sep 14, 2026, 00:08 UTC

1 44552U 19065A   26257.00615412  .00000115  00000-0  00000-0 0  9999
2 44552  62.7132 148.6622 6508130 272.0599  20.2644  2.00578682 51001

Volg COSMOS 2541 in realtime met AllMySat

Download on the App Store